This demonstration page uses our WeatherBlox Daily Observations layout. Learn more.

38.88101, -77.10428

Hourly Observations for March 29, 2018

Temp ( °F °C ) Dew Point ( °F °C ) Humidity (%) Winds ( mph kmh ) Pressure ( in mb ) Visibility ( mi km ) Precip ( " mm )
12:52 am 00:52 Cloudy 50 10 46 7.8 86 86 NE 5 7 30.02 1017 8 12.87472 0 0
1:52 am 01:52 Cloudy 50 10 46 7.8 86 86 NE 6 9 30 1016 7 11.26538 0 0
2:52 am 02:52 Cloudy with Mist and Fog 50 10 46 7.8 86 86 N 6 9 30.01 1016 5 8.0467 0 0
3:52 am 03:52 Partly Cloudy with Mist and Fog 49 9.4 46 7.8 90 90 NNE 5 7 29.99 1016 5 8.0467 0 0
4:03 am 04:03 Partly Cloudy with Mist and Fog 49 9.4 46 7.8 90 90 Calm 30 1016 5 8.0467 0 0
4:29 am 04:29 Mostly Cloudy with Mist and Fog 49 9.4 46 7.8 90 90 Calm 30 1016 5 8.0467 0 0
4:38 am 04:38 Mostly Cloudy with Mist and Fog 48 8.9 45 7.2 89 89 NE 6 9 30 1016 5 8.0467 0 0
4:52 am 04:52 Mostly Cloudy with Mist and Fog 48 8.9 45 7.2 89 89 ENE 7 11 29.98 1015 4 6.43736 0 0
5:07 am 05:07 Mostly Cloudy with Mist and Fog 49 9.4 46 7.8 90 90 ENE 6 9 30 1016 4 6.43736 0 0
5:41 am 05:41 Cloudy with Mist and Fog 49 9.4 46 7.8 90 90 NE 6 9 30 1016 4 6.43736 0 0
5:52 am 05:52 Cloudy with Mist and Fog 49 9.4 46 7.8 90 90 NE 6 9 29.99 1016 4 6.43736 0 0
6:52 am 06:52 Cloudy with Mist and Fog 49 9.4 46 7.8 90 90 ENE 6 9 29.98 1015 3 4.82802 0 0
6:57 am 06:57 Cloudy with Mist and Fog 49 9.4 46 7.8 90 90 E 6 9 29.97 1015 2.5 4.02335 0 0
7:52 am 07:52 Cloudy with Mist and Fog 50 10 46 7.8 86 86 Calm 30.01 1016 2 3.21868 0 0
8:52 am 08:52 Cloudy with Mist and Fog 50 10 46 7.8 86 86 Calm 30.01 1016 2.5 4.02335 0 0
9:13 am 09:13 Cloudy with Mist and Fog 51 10.6 47 8.3 86 86 Calm 30 1016 3 4.82802 0 0
9:52 am 09:52 Cloudy with Haze 53 11.7 48 8.9 83 83 Calm 30.01 1016 4 6.43736 0 0
10:12 am 10:12 Cloudy with Haze 54 12.2 48 8.9 80 80 Calm 30 1016 5 8.0467 0 0
10:52 am 10:52 Cloudy with Haze 54 12.2 48 8.9 80 80 E 3 6 30.01 1016 6 9.65604 0 0
11:52 am 11:52 Cloudy 57 13.9 50 10 78 78 ESE 3 6 29.99 1016 7 11.26538 0 0
12:52 pm 12:52 Cloudy 60 15.6 51 10.6 72 72 S 7 11 29.97 1015 10 16.0934 0 0
1:52 pm 13:52 Cloudy 64 17.8 53 11.7 68 68 S 8 13 29.92 1013 10 16.0934 0 0
2:52 pm 14:52 Cloudy 69 20.6 55 12.8 61 61 S 6 9 29.87 1012 10 16.0934 0 0
3:52 pm 15:52 Cloudy 74 23.3 55 12.8 52 52 SSW 9 15 29.85 1011 10 16.0934 0 0
4:52 pm 16:52 Mostly Cloudy 76 24.4 56 13.3 50 50 S 6 9 29.81 1010 10 16.0934 0 0
5:52 pm 17:52 Mostly Cloudy 75 23.9 52 11.1 45 45 S 12 19 29.78 1009 10 16.0934 0 0
6:52 pm 18:52 Mostly Cloudy 74 23.3 50 10 43 43 S 13 20 29.77 1008 10 16.0934 0 0
7:52 pm 19:52 Cloudy 70 21.1 50 10 49 49 S 13 20 29.77 1008 10 16.0934 0 0
8:52 pm 20:52 Cloudy 70 21.1 51 10.6 51 51 S 12 19 29.77 1008 10 16.0934 0 0
9:52 pm 21:52 Cloudy 70 21.1 52 11.1 53 53 SSW 10 17 29.77 1008 10 16.0934 0 0
10:52 pm 22:52 Mostly Cloudy 65 18.3 51 10.6 61 61 S 12 19 29.75 1007 10 16.0934 0 0
11:52 pm 23:52 Cloudy 72 22.2 53 11.7 52 52 SSW 16 26 29.75 1008 10 16.0934 0 0

Powered by AerisWeather